Find Starlink 11274

NORAD ID: 61001 Int'l Des: 2024-158 Owner: SPXS Country: US Constellation: starlink operational
LEOCIRCULAR

实时位置

正在加载3D地球...

关于 Starlink 11274

正在加载描述...

即将过境

Passes for default location (London). Set your location on the main map for personalized predictions.

高度历史

Loading altitude history...

两行轨道根数

1 61001U 24158M 26126.93236235 .00001022 00000-0 13287-4 0 9998
2 61001 53.1590 354.0473 0001104 114.9766 245.1367 15.69713312 96730
Epoch: May 6, 2026 • Age: 11 hours

当前状态

高度 362.9 km
速度 7.70 km/s
星下点 39.69°N, 25.31°E
发射日期 Sep 5, 2024
运行时间 1.6 years
类型 internet

技术详情

分类 Payload
质量 960.00 kg
干质量 910.00 kg
总质量 960.00 kg
长度 0.30 m
直径 4.10 m
跨度 29.00 m
形状 Box + pan
制造商 SPXS
平台类型 Starlink V2MD
阶段状态 In Orbit
所有者/国家 SPXS/US

Most Searched